Vancouver, WA

4:34 PM PDT on April 24, 2018 (GMT -0700)
Pearson

Weather History for KVUO - August, 2013

Change the Weather History Date:

Saturday, August 24, 2013

  Actual Average Record
Temperature  
Mean Temperature 70 °F 69 °F  
Max Temperature 77 °F 81 °F 96 °F (1982)
Min Temperature 63 °F 56 °F 40 °F (1975)
Degree Days  
Heating Degree Days 0    
Month to date heating degree days 3  
Since 1 June heating degree days 68  
Since 1 July heating degree days 12  
Cooling Degree Days 5    
Month to date cooling degree days 131  
Year to date cooling degree days 335  
Since 1 June cooling degree days 323  
Growing Degree Days 18 (Base 50)    
Moisture  
Dew Point 54 °F    
Average Humidity 63    
Maximum Humidity 84    
Minimum Humidity 41    
Precipitation  
Precipitation 0.00 in 0.03 in 1.62 in (1977)
Month to date precipitation 0.05 0.51  
Year to date precipitation 15.03 21.57  
Snow  
Snow 0.00 in - - ()
Month to date snowfall 0.0  
Since 1 June snowfall 0.0  
Snow Depth 0.00 in    
Sea Level Pressure  
Sea Level Pressure 29.90 in    
Wind  
Wind Speed 3 mph (WNW)    
Max Wind Speed 12 mph    
Max Gust Speed 16 mph    
Visibility 10 miles    
Events      
T = Trace of Precipitation, MM = Missing Value Source: NWS Daily Summary

Daily Weather History Graph

Daily Weather History Graph

Search for Another Location

Airport or City:

Astronomy

Aug. 24, 2013 Rise Set
Actual Time 6:22 AM PDT 8:02 PM PDT
Civil Twilight 5:51 AM PDT 8:33 PM PDT
Nautical Twilight 5:12 AM PDT 9:11 PM PDT
Astronomical Twilight 4:31 AM PDT 9:52 PM PDT
Moon 9:43 PM PDT 10:43 AM PDT
Length of Visible Light 14h 42m
Length of Day
13h 39m
Waning Gibbous, 83% of the Moon is Illuminated
Aug 24
Waning Gibbous
Aug 28
Last Quarter
Sep 5
New
Sep 12
First Quarter
Sep 19
Full

Hourly Weather History & Observations

Time (PDT) Temp. Dew Point Humidity Pressure Visibility Wind Dir Wind Speed Gust Speed Precip Events Conditions
12:53 AM 64.0 °F 57.0 °F 78% 29.91 in 10.0 mi Calm Calm - N/A   Mostly Cloudy
1:53 AM 64.0 °F 55.9 °F 75% 29.91 in 10.0 mi Calm Calm - N/A   Overcast
2:53 AM 64.0 °F 57.0 °F 78% 29.91 in 10.0 mi NNW 3.5 mph - N/A   Overcast
3:53 AM 63.0 °F 57.0 °F 81% 29.91 in 10.0 mi Calm Calm - N/A   Overcast
4:36 AM 62.6 °F 57.2 °F 82% 29.91 in 10.0 mi Calm Calm - N/A   Overcast
4:53 AM 63.0 °F 57.0 °F 81% 29.91 in 10.0 mi Calm Calm - N/A   Overcast
5:09 AM 62.6 °F 57.2 °F 82% 29.90 in 10.0 mi Calm Calm - N/A   Overcast
5:53 AM 63.0 °F 55.9 °F 78% 29.90 in 10.0 mi Variable 3.5 mph - N/A   Overcast
6:53 AM 63.0 °F 55.9 °F 78% 29.91 in 10.0 mi Calm Calm - N/A   Overcast
7:53 AM 63.0 °F 57.0 °F 81% 29.91 in 10.0 mi Calm Calm - N/A   Overcast
8:53 AM 63.0 °F 57.0 °F 81% 29.92 in 8.0 mi Calm Calm - N/A   Overcast
9:53 AM 66.0 °F 57.0 °F 73% 29.91 in 10.0 mi Variable 3.5 mph - N/A   Overcast
10:06 AM 66.2 °F 55.4 °F 68% 29.91 in 10.0 mi NNW 3.5 mph - N/A   Overcast
10:53 AM 68.0 °F 55.0 °F 63% 29.91 in 10.0 mi Calm Calm - N/A   Overcast
11:53 AM 69.1 °F 55.0 °F 61% 29.91 in 10.0 mi WSW 5.8 mph - N/A   Overcast
12:53 PM 71.1 °F 55.0 °F 57% 29.90 in 10.0 mi SW 5.8 mph - N/A   Overcast
1:53 PM 73.9 °F 53.1 °F 48% 29.89 in 10.0 mi WSW 6.9 mph - N/A   Scattered Clouds
2:53 PM 75.0 °F 53.1 °F 46% 29.88 in 10.0 mi Calm Calm - N/A   Partly Cloudy
3:53 PM 75.9 °F 53.1 °F 45% 29.87 in 10.0 mi West 6.9 mph - N/A   Partly Cloudy
4:53 PM 75.9 °F 51.1 °F 42% 29.86 in 10.0 mi West 8.1 mph - N/A   Clear
5:53 PM 75.0 °F 50.0 °F 41% 29.86 in 10.0 mi NW 10.4 mph - N/A   Clear
6:53 PM 73.9 °F 50.0 °F 43% 29.85 in 10.0 mi Variable 6.9 mph - N/A   Clear
7:53 PM 72.0 °F 51.1 °F 48% 29.86 in 10.0 mi Variable 5.8 mph - N/A   Clear
8:53 PM 68.0 °F 48.9 °F 50% 29.88 in 10.0 mi NNW 5.8 mph - N/A   Clear
9:53 PM 66.9 °F 50.0 °F 54% 29.90 in 10.0 mi Variable 3.5 mph - N/A   Clear
10:53 PM 66.0 °F 50.0 °F 56% 29.91 in 10.0 mi NNW 5.8 mph - N/A   Clear
11:53 PM 64.9 °F 52.0 °F 63% 29.90 in 10.0 mi NW 5.8 mph - N/A   Clear